Terminal Aerodrome Forecast
Issued by NWS Raleigh/Durham, NC

Home | Current Version | Previous Version | Text Only | Print | Product List | Glossary On
Versions: 1 2 3 4 5 6 7 8 9 10 11 12 13 14 15 16 17 18 19 20 21 22 23 24 25 26 27
000
FTUS42 KRAH 050853 AAA
TAFGSO
TAF AMD
KGSO 050853Z 0509/0606 34004KT P6SM VCSH OVC070
     FM051200 34011KT 5SM -SHRA BR SCT012 OVC050
     FM051400 33012KT 5SM -SHRA BR SCT020 OVC035
     FM052300 32010KT 6SM BR VCSH BKN009 OVC030=

USA.gov is the U.S. government's official web portal to all federal, state and local government web resources and services.